This is the latest recevied weather packets stored in our database for station/object KTYS. If no packets are shown the sender has not sent any weather packets the latest 1 day(s).
| Time | Temp. | Humidity | Pressure | Rain* | Wind** | Luminosity | Snow |
|---|---|---|---|---|---|---|---|
| 1778033620 | 20.56° C | 40% | 1010.8 hPa | - | - | - | - |
| 1778033021 | 20.56° C | 40% | 1010.8 hPa | - | - | - | - |
| 1778032421 | 21.67° C | 37% | 1010.5 hPa | - | - | - | - |
| 1778031820 | 21.67° C | 37% | 1010.5 hPa | - | - | - | - |
| 1778031220 | 21.67° C | 37% | 1010.5 hPa | - | - | - | - |
| 1778030619 | 21.67° C | 37% | 1010.5 hPa | - | - | - | - |
| 1778030021 | 21.67° C | 37% | 1010.5 hPa | - | - | - | - |
| 1778029418 | 21.67° C | 37% | 1010.5 hPa | - | - | - | - |
| 1778027619 | 23.89° C | 31% | 1010.8 hPa | - | - | - | - |
| 1778027018 | 23.89° C | 31% | 1010.8 hPa | - | - | - | - |
| 1778026424 | 23.89° C | 31% | 1010.8 hPa | - | - | - | - |
| 1778023423 | 25.56° C | 29% | 1010.5 hPa | - | - | - | - |
| 1778021624 | 25.56° C | 31% | 1010.5 hPa | - | - | - | - |
| 1778019819 | 25.56° C | 31% | 1010.5 hPa | - | - | - | - |
| 1778019220 | 25.56° C | 31% | 1010.5 hPa | - | - | - | - |
| 1778016823 | 25.56° C | 29% | 1011.2 hPa | - | - | - | - |
| 1778015621 | 25.56° C | 29% | 1011.2 hPa | - | - | - | - |
| 1778015021 | 25.56° C | 29% | 1011.2 hPa | - | - | - | - |
| 1778011419 | 23.89° C | 33% | 1011.9 hPa | - | - | - | - |
| 1778008421 | 23.89° C | 38% | 1012.9 hPa | - | - | - | - |
* Rain since midnight (hover to see other rain measurements)
** Current wind speed in m/s (hover to see current wind gust speed)